Tracking 25195 objects as of 19-Jan-2022
HD Live streaming from Space Station
objects crossing your sky now

DMSP 5D-2 F15 (USA 147)

Track DMSP 5D-2 F15 (USA 147) now!
10-day predictions
DMSP 5D-2 F15 (USA 147) is classified as:


NORAD ID: 25991
Int'l Code: 1999-067A
Perigee: 837.7 km
Apogee: 851.0 km
Inclination: 99.0 °
Period: 101.7 minutes
Semi major axis: 7215 km
RCS: Unknown
Launch date: December 12, 1999
Source: United States (US)
Launch site: AIR FORCE WESTERN TEST RANGE (AFWTR)

Near-polar orbits; investigate Earth's environment.
aabbcc
Your satellite tracking list
Your tracking list is empty




NASA's NSSDC Master Catalog

Two Line Element Set (TLE):
1 25991U 99067A   22019.51517001  .00000110  00000-0  78644-4 0  9996
2 25991  99.0404   8.6427 0009234 249.7712 218.6110 14.16492908142708
Source of the keplerian elements: McCants